TimePDT,TemperatureF,Dew PointF,Humidity,Sea Level PressureIn,VisibilityMPH,Wind Direction,Wind SpeedMPH,Gust SpeedMPH,PrecipitationIn,Events,Conditions,WindDirDegrees,DateUTC
12:52 AM,84.0,48.0,28,29.75,10.0,NNW,13.8,-,N/A,,Clear,330,2013-06-13 07:52:00
1:52 AM,82.0,48.0,30,29.75,10.0,NW,11.5,-,N/A,,Clear,320,2013-06-13 08:52:00
2:52 AM,79.0,51.1,38,29.74,10.0,WNW,10.4,-,N/A,,Clear,300,2013-06-13 09:52:00
3:52 AM,79.0,53.1,40,29.75,10.0,NW,10.4,-,N/A,,Clear,310,2013-06-13 10:52:00
4:52 AM,77.0,53.1,43,29.76,10.0,NNW,6.9,-,N/A,,Clear,330,2013-06-13 11:52:00
5:52 AM,78.1,53.1,42,29.78,10.0,NNW,10.4,-,N/A,,Clear,340,2013-06-13 12:52:00
6:52 AM,80.1,52.0,38,29.81,10.0,NNW,10.4,-,N/A,,Clear,340,2013-06-13 13:52:00
7:52 AM,84.9,50.0,30,29.83,10.0,Variable,5.8,-,N/A,,Clear,0,2013-06-13 14:52:00
8:52 AM,88.0,50.0,27,29.83,10.0,Calm,Calm,-,N/A,,Clear,0,2013-06-13 15:52:00
9:52 AM,93.0,51.1,24,29.83,10.0,ENE,4.6,-,N/A,,Clear,60,2013-06-13 16:52:00
10:52 AM,96.1,42.1,15,29.82,10.0,Variable,4.6,-,N/A,,Clear,0,2013-06-13 17:52:00
11:52 AM,100.0,39.0,12,29.80,10.0,Variable,3.5,-,N/A,,Clear,0,2013-06-13 18:52:00
12:52 PM,102.0,35.1,10,29.78,10.0,Calm,Calm,-,N/A,,Clear,0,2013-06-13 19:52:00
1:52 PM,104.0,34.0,9,29.75,10.0,Variable,3.5,-,N/A,,Clear,0,2013-06-13 20:52:00
2:52 PM,107.1,39.0,10,29.72,10.0,Variable,4.6,-,N/A,,Clear,0,2013-06-13 21:52:00
3:52 PM,105.1,32.0,8,29.70,10.0,SE,11.5,16.1,N/A,,Clear,140,2013-06-13 22:52:00
4:52 PM,105.1,28.9,7,29.68,10.0,SSE,8.1,-,N/A,,Clear,150,2013-06-13 23:52:00
5:52 PM,105.1,33.1,8,29.66,10.0,South,3.5,-,N/A,,Clear,170,2013-06-14 00:52:00
6:52 PM,100.9,37.0,11,29.67,10.0,Calm,Calm,-,N/A,,Clear,0,2013-06-14 01:52:00
7:52 PM,97.0,39.9,14,29.67,10.0,NNW,15.0,20.7,N/A,,Clear,340,2013-06-14 02:52:00
8:52 PM,93.9,36.0,13,29.68,10.0,NNW,17.3,26.5,N/A,,Clear,340,2013-06-14 03:52:00
9:52 PM,91.9,39.9,16,29.70,10.0,NNW,17.3,-,N/A,,Clear,340,2013-06-14 04:52:00
10:52 PM,89.1,43.0,20,29.70,10.0,NNW,13.8,-,N/A,,Clear,330,2013-06-14 05:52:00
11:52 PM,87.1,44.1,22,29.70,10.0,NNW,15.0,-,N/A,,Clear,330,2013-06-14 06:52:00